CAPE
1387 1667 1613 1527 1762 1882 1688 1905 1757 1684 1607 1522 1493 1373 1176 1104 1143 1231 1100 913 748 839 708 628 512 298 142 78 48 58 0 0
1009 1443 1750 1787 2053 1907 1955 1896 1654 1558 1486 1365 1268 1144 991 879 881 1034 928 794 671 619 507 537 421 163 87 59 44 123 0 0
1219 1002 1382 1643 1823 2021 1798 1670 1482 1412 1357 1240 1163 952 862 719 696 698 738 636 475 373 319 287 210 13 6 0 18 103 1 0
1510 962 881 1031 1168 1413 1466 1403 1321 1257 1150 1000 860 752 746 593 566 547 649 484 304 261 254 154 50 0 0 0 4 82 0 0
1724 974 934 908 1053 703 731 794 721 685 683 650 645 612 595 614 497 511 536 438 285 306 427 423 17 1 0 0 0 39 14 0
1784 1564 1655 1467 1290 973 666 594 569 695 813 492 507 523 407 395 511 474 515 547 310 197 232 202 256 140 0 0 0 0 30 0
1984 1886 1810 1862 1573 1706 1596 1433 1364 1201 1007 783 689 578 364 240 350 615 754 714 457 229 223 224 215 227 24 0 0 0 0 0
2181 2031 1986 1644 1659 1743 1850 1871 1927 1755 1550 1265 900 717 614 515 494 507 805 961 820 539 486 530 312 289 204 100 0 0 0 0
2122 2054 1936 1437 1662 1229 1499 1707 1470 1693 1432 1472 1497 1272 997 721 428 710 928 991 847 807 839 638 557 496 286 236 146 0 0 0
1960 2149 1910 1711 1462 1172 1234 1179 1201 1195 1173 1317 1423 1536 1519 1238 1043 903 984 993 1030 1058 899 802 863 752 582 365 88 109 40 3
2144 2109 1892 1839 1470 1392 1374 1226 1121 1018 1072 1061 1229 1353 1438 1408 1346 1270 1109 1077 1165 1211 1060 973 831 804 652 604 441 507 207 39
1282 1339 1302 1141 1064 1035 975 526 391 363 395 564 757 883 902 890 854 962 853 799 794 923 855 818 617 599 552 565 668 240 167 170
755 873 595 267 401 431 103 0 309 133 270 503 390 303 546 771 838 796 835 872 811 769 652 657 719 677 593 489 383 525 280 202
128 79 61 0 0 0 0 0 0 0 0 25 0 0 40 79 273 500 727 769 826 669 582 457 570 507 486 327 320 301 534 74
0 0 0 0 0 0 0 0 0 0 0 0 0 0 0 0 0 0 0 35 19 174 26 180 142 97 163 169 161 54 242 93
0 0 0 0 0 0 0 0 0 0 0 0 0 0 0 0 0 0 9 61 65 36 61 57 78 49 57 86 99 68 45 12
0 0 0 0 0 0 0 0 0 0 0 0 0 0 0 0 0 0 19 14 1 0 0 2 1 7 16 9 34 11 3 106
0 0 0 0 0 0 0 0 0 0 0 0 0 0 0 0 0 0 8 5 1 1 3 11 40 20 0 0 9 48 18 69
0 0 0 0 0 0 0 0 0 0 0 0 0 0 0 0 0 0 0 0 0 10 15 30 18 54 73 1 2 4 19 16
0 0 0 0 0 0 0 0 0 0 0 0 0 0 0 0 0 0 0 0 0 0 0 36 45 0 0 54 33 1 35 4
CIN
-394 -313 -315 -308 -223 -160 -174 -123 -128 -132 -136 -130 -123 -139 -168 -168 -151 -116 -128 -151 -175 -135 -155 -165 -192 -249 -312 -348 -348 -423 0 0
-468 -339 -269 -235 -154 -149 -115 -95 -105 -99 -111 -111 -118 -131 -167 -190 -183 -137 -148 -179 -209 -224 -240 -201 -224 -333 -362 -359 -385 -374 -1 0
-260 -406 -319 -246 -178 -125 -133 -125 -144 -118 -111 -119 -129 -166 -179 -206 -204 -199 -186 -196 -237 -255 -283 -305 -324 -438 -441 0 -425 -351 -407 0
-209 -292 -360 -315 -253 -197 -175 -156 -157 -149 -147 -172 -175 -187 -180 -202 -208 -207 -191 -244 -299 -285 -292 -344 -401 0 0 0 -440 -351 -1 0
-164 -333 -324 -310 -253 -322 -295 -258 -258 -266 -246 -231 -218 -215 -214 -183 -200 -178 -155 -200 -278 -258 -207 -215 -208 0 0 0 0 -383 -439 0
-129 -48 -61 -61 -205 -252 -253 -328 -307 -138 -101 -306 -290 -267 -297 -265 -188 -185 -156 -123 -233 -300 -255 -269 -250 -328 0 0 0 -288 -386 0
-48 -47 -56 -51 -116 -69 -71 -78 -51 -47 -58 -72 -80 -109 -257 -320 -303 -177 -128 -120 -150 -258 -267 -243 -239 -233 -409 0 0 0 0 0
-62 -44 -29 -27 -82 -44 -18 -20 -17 -13 -28 -42 -61 -58 -76 -105 -111 -120 -90 -67 -88 -130 -137 -87 -173 -180 -223 -275 0 -209 0 0
-74 -47 -16 -19 -4 -69 -50 -21 -35 -4 -37 -40 -29 -29 -29 -39 -102 -130 -69 -45 -32 -37 -40 -75 -94 -90 -148 -177 -225 0 0 0
-51 -41 -11 -6 -14 -16 -18 -26 -26 -31 -52 -46 -52 -39 -22 -14 -20 -24 -47 -35 -24 -10 -16 -32 -35 -39 -58 -89 -228 -201 -231 -49
-19 -5 -4 -1 -1 -8 -11 -15 -11 -8 -12 -9 -17 -29 -17 -10 -1 -4 -5 -7 -11 -10 -9 -1 -5 -12 -32 -51 -33 -40 -110 -235
-3 -9 -9 -23 -13 -20 -22 -62 -73 -101 -94 -71 -54 -37 -25 -24 -18 -11 -22 -16 -14 -4 -5 -10 -9 -2 -5 -5 -14 -63 -79 -72
-36 0 -2 -90 -51 -42 -200 -1 -78 -171 -79 -40 -55 -87 -54 -31 -27 -29 -15 -11 -21 -5 -1 -2 0 -4 -1 0 -8 -3 -17 -15
-220 -247 -158 0 0 0 0 0 0 0 0 -167 0 0 -154 -103 -74 -31 -11 -2 0 -1 -1 -4 0 0 0 -1 0 -4 -6 -94
0 0 0 0 0 0 0 0 0 0 0 0 0 0 0 0 0 0 0 -16 -5 -55 -5 -10 -5 -5 0 -3 -3 -8 0 -23
0 0 0 0 0 0 0 0 0 0 0 0 0 0 0 0 0 0 -12 -24 -17 -6 -13 -6 -7 0 0 -3 -11 -1 0 0
0 0 0 0 0 0 0 0 0 0 0 0 0 0 0 0 0 0 -25 -20 -2 -3 -2 -1 -5 -10 0 -7 -3 -4 -1 -2
0 0 0 0 0 0 0 0 0 0 0 0 0 0 0 0 0 0 -10 -9 -10 -13 -15 -28 -21 -22 0 0 -1 0 -60 -41
0 0 0 0 0 0 0 0 0 0 0 0 0 0 0 0 0 0 0 0 0 -14 -40 -23 -12 -14 -20 -20 0 0 0 -2
0 0 0 0 0 0 0 0 0 0 0 0 0 0 0 0 0 0 0 0 0 0 -1 -2 -33 0 0 -17 -11 -5 -5 0
Wind_Speed
17 15 18 23 25 24 22 18 17 19 19 19 20 20 25 26 26 26 27 26 23 22 21 18 19 18 15 nan nan nan nan nan
19 15 14 16 16 17 17 17 15 16 17 17 18 20 21 22 23 23 25 28 29 25 20 18 18 20 nan nan nan 19 nan nan
15 15 15 18 16 14 15 15 15 15 14 15 16 14 14 16 17 19 20 22 23 23 22 21 22 nan nan nan nan 20 nan nan
15 15 13 16 18 15 15 14 14 13 15 16 16 16 16 16 16 16 18 20 20 19 20 22 nan nan nan nan nan nan nan nan
17 19 18 16 16 15 15 19 17 17 18 18 18 17 18 18 20 20 19 19 16 18 19 21 nan nan nan nan nan nan nan nan
17 19 20 16 17 17 22 20 20 20 21 23 23 21 20 22 23 23 23 25 23 21 22 22 23 24 nan nan nan nan nan nan
15 20 22 17 18 21 20 22 24 22 22 25 26 27 27 26 27 29 29 29 28 27 26 25 26 24 nan nan nan nan nan nan
18 20 24 24 22 23 24 24 27 27 27 26 27 27 27 29 30 30 31 34 32 31 31 31 30 29 26 24 nan nan nan nan
18 22 22 25 25 24 27 27 28 28 25 26 31 33 35 36 36 36 37 37 35 35 34 35 35 36 34 31 29 nan nan nan
24 25 24 24 28 32 33 33 32 31 30 31 32 33 35 38 38 36 38 39 39 40 39 38 35 37 37 40 nan 35 nan nan
31 29 29 27 28 30 33 34 35 38 38 37 36 38 37 38 39 39 41 39 41 43 42 44 42 38 37 38 42 44 43 nan
37 33 31 30 31 34 35 33 34 39 40 41 41 41 39 41 42 41 45 47 48 48 48 48 48 46 43 40 42 43 45 49
34 36 33 35 35 34 35 nan 38 40 42 43 44 44 45 47 48 48 51 53 53 56 58 56 56 56 56 50 47 45 48 49
34 nan nan nan nan nan nan nan nan nan nan nan nan nan nan nan 53 54 55 57 57 60 61 59 64 65 61 63 61 60 60 nan
nan nan nan nan nan nan nan nan nan nan nan nan nan nan nan nan nan nan nan nan nan 67 nan 67 63 nan 68 68 71 nan 72 nan
nan nan nan nan nan nan nan nan nan nan nan nan nan nan nan nan nan nan nan nan nan nan nan nan nan nan nan nan nan nan nan nan
nan nan nan nan nan nan nan nan nan nan nan nan nan nan nan nan nan nan nan nan nan nan nan nan nan nan nan nan nan nan nan 71
nan nan nan nan nan nan nan nan nan nan nan nan nan nan nan nan nan nan nan nan nan nan nan nan nan nan nan nan nan nan nan nan
nan nan nan nan nan nan nan nan nan nan nan nan nan nan nan nan nan nan nan nan nan nan nan nan nan nan nan nan nan nan nan nan
nan nan nan nan nan nan nan nan nan nan nan nan nan nan nan nan nan nan nan nan nan nan nan nan nan nan nan nan nan nan nan nan
Wind_Direction
318 321 326 335 340 346 345 326 321 321 318 320 319 320 321 324 325 327 326 326 326 324 321 325 326 327 323 nan nan nan nan nan
314 310 317 317 329 334 330 328 324 322 320 318 315 320 321 324 328 330 331 326 322 323 323 321 329 330 nan nan nan 284 nan nan
301 308 315 316 319 330 319 323 325 325 322 323 315 313 319 322 322 328 330 329 329 325 327 325 322 nan nan nan nan 292 nan nan
298 297 302 310 319 309 297 298 301 304 307 313 311 312 311 317 315 331 335 331 329 325 321 315 nan nan nan nan nan nan nan nan
309 310 308 314 319 296 287 292 301 303 308 307 311 313 313 311 307 311 311 317 301 298 299 296 nan nan nan nan nan nan nan nan
294 301 305 314 309 302 304 295 300 301 308 314 314 311 312 310 308 311 308 308 313 299 293 300 297 303 nan nan nan nan nan nan
298 291 298 299 290 290 286 289 294 300 305 308 307 310 316 310 313 311 309 305 306 307 303 299 299 297 nan nan nan nan nan nan
291 288 295 292 285 289 295 292 294 300 307 311 313 309 306 308 308 309 308 306 304 302 300 301 299 296 296 290 nan nan nan nan
282 277 276 280 282 293 290 288 288 294 298 308 314 318 318 314 310 309 307 304 303 297 296 293 292 294 299 289 285 nan nan nan
278 282 282 279 281 282 289 294 296 298 300 297 308 309 309 305 302 302 302 301 299 296 293 291 289 287 286 291 nan 281 nan nan
272 275 285 287 288 294 295 293 295 295 296 294 294 298 300 301 300 299 294 292 292 291 288 288 286 278 275 275 279 283 286 nan
278 282 286 292 290 289 289 291 292 291 292 294 294 294 294 296 297 294 292 292 290 286 285 284 282 277 274 269 267 270 273 278
277 279 282 290 293 291 289 nan 290 290 290 289 288 291 295 296 294 291 292 291 288 287 284 284 282 280 275 269 265 263 265 264
279 nan nan nan nan nan nan nan nan nan nan nan nan nan nan nan 289 287 283 281 280 280 278 276 278 282 282 278 277 273 268 nan
nan nan nan nan nan nan nan nan nan nan nan nan nan nan nan nan nan nan nan nan nan 279 nan 279 277 nan 281 279 274 nan 275 nan
nan nan nan nan nan nan nan nan nan nan nan nan nan nan nan nan nan nan nan nan nan nan nan nan nan nan nan nan nan nan nan nan
nan nan nan nan nan nan nan nan nan nan nan nan nan nan nan nan nan nan nan nan nan nan nan nan nan nan nan nan nan nan nan 277
nan nan nan nan nan nan nan nan nan nan nan nan nan nan nan nan nan nan nan nan nan nan nan nan nan nan nan nan nan nan nan nan
nan nan nan nan nan nan nan nan nan nan nan nan nan nan nan nan nan nan nan nan nan nan nan nan nan nan nan nan nan nan nan nan
nan nan nan nan nan nan nan nan nan nan nan nan nan nan nan nan nan nan nan nan nan nan nan nan nan nan nan nan nan nan nan nan